Wind_Speed
44 42 39 36 33 39 42 39 38 41 47 50 48 49 52 55 56 57 57 55 55 57 57 57 57 58 59 61 62 63 63 62 61 56 48 42 41 45 45 46 46 45 45
36 36 40 40 41 44 41 37 39 44 45 45 47 50 53 55 56 56 55 54 55 57 57 57 58 59 59 60 60 60 59 56 52 45 41 37 38 39 39 41 40 40 39
44 43 43 42 42 41 40 40 43 44 45 47 49 50 53 54 53 53 53 53 54 54 56 58 59 60 58 55 52 48 46 45 43 39 35 35 36 36 37 37 35 32 28
49 46 43 40 40 40 42 44 44 45 47 48 49 49 50 51 52 52 52 53 53 55 57 58 57 54 48 43 39 37 35 34 32 30 28 29 30 31 31 28 22 18 16
49 44 42 40 39 41 42 43 45 45 45 46 47 48 50 51 51 51 52 54 55 56 54 52 49 44 41 41 38 33 28 25 22 20 21 22 25 27 23 17 13 11 10
47 43 43 43 42 42 42 43 43 44 44 46 48 50 51 51 51 52 53 55 53 50 46 44 43 42 42 41 34 28 23 19 17 17 18 21 23 18 13 11 7 8 9
44 42 45 47 43 41 40 41 43 44 45 47 50 50 50 50 51 52 53 51 46 42 40 40 38 35 35 31 26 23 20 18 17 17 17 17 13 11 9 5 4 6 9
43 44 49 44 40 41 40 41 44 45 47 49 50 49 49 49 50 50 48 44 40 37 36 34 31 30 26 21 19 17 14 13 13 13 10 8 8 7 5 4 5 8 9
42 46 41 39 41 41 41 42 44 47 49 50 48 47 48 49 47 45 42 39 34 32 32 30 27 24 19 14 13 12 10 9 8 4 3 3 3 3 4 4 6 8 9
39 37 36 38 41 41 42 44 46 49 48 47 46 46 47 45 42 40 37 32 29 29 28 28 24 19 16 12 10 7 5 3 4 5 3 2 1 3 6 8 8 7 4
37 36 36 38 39 41 43 45 47 48 47 47 47 45 43 40 37 36 32 28 26 25 24 24 23 19 15 9 4 4 8 8 7 7 8 8 7 6 7 8 7 3 1
33 35 35 37 39 42 44 45 46 47 48 48 46 42 38 36 33 31 27 23 22 20 21 19 17 12 4 5 9 12 11 10 11 11 9 6 8 10 10 7 3 3 4
30 32 35 37 40 42 43 45 47 48 47 44 40 35 33 32 28 23 19 16 17 19 18 16 11 7 10 13 14 13 13 12 11 9 7 8 10 9 7 5 4 4 5
29 33 36 39 40 42 44 46 46 43 38 33 30 30 30 26 21 15 12 14 16 17 16 9 10 12 14 14 13 12 11 10 8 6 8 10 9 8 7 6 5 4 5
31 34 37 38 40 42 43 42 38 32 27 26 27 28 26 19 13 9 10 11 12 13 9 9 11 12 12 10 10 11 11 9 7 6 8 10 9 7 7 8 7 8 10
31 34 36 39 41 41 38 33 28 22 22 26 28 24 17 11 6 6 7 8 10 12 9 10 12 12 13 13 14 14 12 11 9 9 12 13 10 9 10 10 9 10 13
32 35 38 39 38 34 29 24 20 20 23 26 24 18 11 7 4 3 5 6 9 11 10 11 11 13 15 15 14 13 12 12 11 13 15 13 11 12 12 11 10 11 15
33 36 37 36 31 25 20 17 18 21 23 23 19 14 10 8 6 3 5 6 8 10 11 11 12 14 14 12 13 13 12 12 13 14 14 13 14 15 14 13 13 16 21
34 35 34 28 21 16 15 17 21 22 21 18 15 11 10 12 9 4 2 5 7 10 12 13 15 15 15 16 17 16 13 13 13 14 14 14 17 18 18 19 21 24 26
33 31 25 19 16 16 18 20 21 20 17 14 13 12 9 9 8 5 5 6 7 10 13 15 16 16 16 18 18 16 14 14 16 15 13 15 19 21 21 21 21 24 26
27 22 18 16 17 18 19 19 19 18 14 10 9 10 10 8 7 7 8 8 9 12 14 15 16 16 17 17 17 17 17 15 14 14 16 20 22 21 20 21 21 23 26
21 17 16 17 18 19 18 17 18 18 14 9 7 8 11 10 10 9 10 10 12 13 13 13 13 13 13 15 15 16 14 13 14 15 19 24 22 19 19 21 24 24 24
19 19 18 18 19 19 18 17 17 17 15 12 9 10 12 13 13 13 13 12 13 14 12 11 10 10 10 11 9 9 10 11 13 15 19 23 20 17 18 19 22 23 22
17 19 19 19 20 20 19 17 16 16 16 14 13 14 14 14 15 17 16 15 14 14 13 12 10 10 9 8 7 9 10 11 12 15 18 19 18 16 16 17 17 17 17
19 19 20 20 20 21 20 19 17 16 16 16 15 16 16 16 17 19 19 18 16 14 13 13 12 11 11 11 12 11 11 12 12 14 17 18 17 16 16 17 16 14 12
23 23 24 24 23 23 22 21 20 19 18 16 16 17 18 17 18 18 18 18 16 14 13 13 13 13 13 13 12 12 12 14 14 14 16 16 15 14 14 15 16 14 13
Wind_Direction
286 286 290 292 300 301 304 300 295 294 296 296 295 295 296 296 294 293 294 296 297 296 294 293 292 293 294 295 293 291 289 287 284 284 281 277 275 273 272 271 271 270 270
289 285 299 307 306 305 301 296 296 298 297 295 294 296 296 295 295 295 296 297 296 296 296 297 298 298 297 295 292 289 287 284 284 285 284 278 273 273 274 275 274 272 269
298 302 304 306 306 301 295 294 298 297 296 295 295 295 294 294 294 295 296 297 298 300 301 302 301 299 297 295 294 293 291 288 283 279 278 274 273 275 278 280 280 275 264
304 307 309 307 301 295 294 298 299 299 298 296 294 294 295 296 296 298 301 303 304 305 305 303 300 297 295 295 297 297 298 295 288 277 270 272 273 275 278 281 277 264 256
305 306 308 304 298 296 297 298 298 298 296 296 297 299 300 301 303 307 308 309 309 308 305 302 299 295 292 295 297 294 296 296 289 278 273 272 272 276 278 272 267 270 254
299 302 307 299 297 298 299 299 299 300 301 303 304 305 306 308 311 312 312 312 311 308 305 303 302 296 293 295 291 288 289 288 283 281 276 273 275 274 262 263 271 263 243
288 295 301 294 295 297 298 299 302 306 309 309 309 309 310 313 314 314 314 313 310 307 307 308 307 302 297 293 284 282 284 282 283 283 278 276 272 254 245 237 239 257 246
280 298 301 297 299 298 301 304 308 311 312 311 311 311 313 315 316 315 314 312 311 310 310 312 310 307 300 290 279 276 284 285 285 284 280 268 247 235 209 207 239 232 233
281 294 297 299 299 300 306 309 311 313 313 311 311 313 315 316 316 314 313 314 313 314 316 316 315 313 308 293 280 279 279 278 279 264 203 219 199 178 176 206 208 199 203
293 296 297 298 300 304 309 311 313 313 310 311 313 315 316 316 314 313 314 314 316 319 322 321 321 316 311 297 284 267 245 227 163 156 188 244 199 154 168 182 183 172 170
297 299 299 301 305 308 311 312 312 310 311 313 315 316 315 314 313 313 313 315 318 320 322 320 320 319 307 280 238 154 140 140 141 137 128 120 121 131 141 137 133 129 294
300 301 302 305 308 311 312 312 311 312 314 315 316 315 314 314 314 313 313 318 322 323 324 323 329 336 333 134 128 125 125 130 130 121 118 119 121 124 119 108 87 12 335
300 302 306 310 312 312 312 313 314 315 316 316 315 313 314 315 315 315 320 326 333 333 334 341 356 33 89 106 111 116 119 122 120 112 111 122 122 115 100 82 46 4 327
307 309 311 313 312 313 314 316 318 319 319 318 317 318 319 317 315 317 328 339 339 339 344 19 60 81 95 104 109 117 128 130 122 105 105 119 119 108 93 79 58 53 99
312 313 313 313 314 316 318 320 323 324 324 325 327 327 323 319 318 326 342 344 345 348 11 75 83 95 102 106 112 114 115 117 116 114 115 122 123 107 89 78 76 120 128
317 316 316 317 319 321 323 324 327 331 336 335 332 330 330 327 323 339 356 355 359 10 66 92 100 106 111 115 117 112 101 96 94 104 114 118 112 99 89 90 99 116 120
321 321 321 323 324 325 328 334 340 343 343 341 339 342 350 0 359 351 4 12 17 38 82 100 110 118 118 114 113 111 102 99 103 110 113 111 103 96 94 92 94 111 119
327 326 327 328 331 335 342 349 349 344 345 349 353 358 13 22 20 10 18 42 37 60 92 102 116 124 120 114 111 105 96 94 100 110 112 105 101 101 98 100 112 121 122
330 330 333 338 345 354 355 351 347 344 346 355 3 12 26 24 18 12 45 84 67 83 105 112 120 118 114 113 113 104 94 96 102 108 110 105 109 110 102 107 116 122 122
334 338 345 357 6 2 356 351 348 347 349 359 8 14 15 9 20 48 92 105 92 107 116 118 117 112 112 118 117 106 101 101 100 102 102 113 118 110 101 106 117 124 125
343 352 5 12 7 0 354 353 354 355 354 358 7 18 20 19 37 74 99 111 114 120 125 124 117 108 109 120 113 101 104 99 93 96 109 125 127 116 106 105 116 128 132
358 7 10 7 2 358 357 0 3 7 11 16 20 25 31 43 55 81 104 115 116 119 131 134 126 114 109 118 111 97 95 90 88 97 119 133 133 124 117 111 110 120 131
14 17 15 10 7 6 9 12 15 21 29 42 44 44 48 53 60 84 98 107 110 110 122 133 131 124 120 119 115 102 100 101 98 106 126 139 140 133 129 128 123 117 118
19 20 19 17 17 18 21 24 28 35 41 49 60 59 56 61 76 91 95 102 107 108 115 125 128 126 129 130 124 117 112 110 112 122 132 139 141 138 139 139 131 121 115
30 27 25 25 27 28 31 35 37 43 48 59 68 63 62 73 87 93 93 98 101 104 109 116 119 122 125 130 134 133 129 125 126 133 136 136 138 144 150 150 146 141 136
42 41 40 40 38 38 40 43 44 48 53 62 69 68 70 80 89 93 93 93 94 99 102 107 110 114 119 126 132 136 137 136 135 137 145 145 140 140 147 156 160 160 159
Height
5759 5754 5751 5748 5744 5739 5733 5727 5720 5714 5709 5703 5697 5690 5684 5677 5669 5661 5654 5645 5640 5634 5627 5620 5614 5608 5601 5594 5586 5579 5573 5567 5563 5560 5556 5555 5553 5551 5550 5549 5549 5551 5552
5748 5743 5740 5736 5731 5726 5720 5715 5709 5702 5696 5691 5684 5677 5671 5663 5656 5648 5641 5632 5625 5619 5612 5605 5597 5590 5584 5576 5568 5561 5555 5548 5546 5545 5541 5541 5540 5538 5538 5537 5537 5537 5537
5738 5734 5730 5724 5718 5713 5707 5702 5696 5690 5684 5677 5671 5664 5658 5651 5643 5635 5627 5619 5610 5603 5595 5587 5580 5573 5567 5559 5552 5546 5539 5534 5532 5531 5530 5529 5528 5528 5527 5526 5526 5525 5525
5726 5722 5718 5712 5706 5701 5696 5690 5684 5678 5672 5666 5659 5651 5644 5637 5630 5621 5613 5604 5596 5587 5579 5571 5564 5557 5551 5544 5539 5534 5529 5524 5521 5520 5520 5520 5519 5518 5518 5518 5517 5516 5518
5714 5710 5706 5700 5695 5689 5684 5678 5672 5666 5660 5654 5646 5638 5631 5624 5616 5606 5597 5589 5580 5572 5564 5556 5549 5543 5537 5532 5528 5524 5520 5516 5513 5512 5513 5513 5512 5511 5511 5511 5511 5512 5514
5703 5699 5694 5689 5684 5679 5673 5668 5662 5655 5648 5640 5633 5625 5618 5610 5601 5592 5583 5575 5567 5559 5551 5544 5537 5531 5526 5521 5517 5515 5512 5510 5508 5507 5507 5506 5505 5505 5506 5507 5508 5510 5512
5691 5687 5682 5678 5673 5668 5662 5656 5650 5644 5636 5628 5620 5613 5605 5596 5588 5579 5571 5564 5555 5547 5540 5534 5527 5521 5515 5511 5508 5507 5506 5505 5504 5502 5502 5501 5501 5501 5503 5505 5507 5509 5510
5682 5675 5672 5667 5663 5658 5651 5644 5638 5631 5623 5616 5608 5600 5593 5585 5577 5569 5560 5553 5545 5538 5532 5525 5518 5511 5506 5503 5501 5501 5501 5500 5499 5498 5499 5498 5499 5500 5502 5504 5506 5508 5509
5669 5666 5661 5657 5653 5646 5639 5632 5625 5618 5611 5605 5597 5589 5582 5575 5567 5559 5552 5544 5537 5530 5524 5517 5511 5505 5500 5497 5496 5497 5497 5497 5497 5497 5498 5498 5499 5501 5502 5504 5505 5506 5508
5659 5655 5651 5647 5642 5636 5629 5622 5614 5607 5601 5594 5587 5579 5572 5565 5558 5551 5543 5536 5530 5524 5517 5511 5505 5500 5496 5494 5493 5493 5494 5496 5497 5498 5499 5499 5500 5501 5502 5503 5505 5506 5508
5650 5647 5642 5638 5633 5626 5619 5611 5604 5598 5591 5584 5578 5570 5563 5557 5549 5542 5535 5529 5524 5518 5513 5507 5501 5496 5493 5491 5491 5492 5494 5497 5498 5500 5501 5501 5502 5502 5503 5505 5507 5508 5508
5642 5639 5635 5630 5624 5616 5609 5602 5595 5588 5580 5573 5566 5560 5554 5547 5541 5534 5529 5524 5519 5514 5509 5504 5498 5493 5490 5490 5492 5494 5497 5499 5501 5502 5503 5504 5504 5504 5506 5508 5508 5507 5506
5637 5633 5628 5621 5614 5607 5600 5593 5586 5578 5570 5562 5555 5550 5544 5538 5532 5528 5524 5520 5516 5511 5506 5502 5498 5495 5493 5494 5496 5499 5501 5502 5504 5505 5506 5506 5507 5508 5509 5510 5509 5507 5506
5631 5625 5619 5612 5605 5598 5590 5584 5576 5567 5559 5552 5547 5541 5535 5530 5526 5523 5521 5518 5514 5510 5506 5502 5500 5499 5499 5500 5502 5504 5505 5506 5507 5508 5508 5509 5510 5511 5511 5511 5510 5509 5508
5623 5617 5611 5604 5597 5590 5582 5574 5566 5559 5552 5546 5540 5534 5529 5525 5522 5520 5518 5516 5514 5511 5506 5504 5503 5503 5504 5505 5506 5507 5508 5509 5509 5510 5511 5512 5513 5513 5513 5513 5513 5513 5513
5616 5610 5603 5596 5588 5581 5574 5567 5560 5554 5548 5542 5536 5530 5526 5522 5520 5519 5518 5516 5514 5511 5508 5507 5507 5507 5508 5508 5509 5511 5511 5511 5512 5512 5514 5515 5516 5516 5516 5516 5516 5517 5517
5610 5603 5596 5587 5580 5573 5567 5561 5555 5550 5545 5539 5533 5528 5524 5521 5520 5519 5518 5516 5515 5512 5511 5510 5511 5511 5512 5512 5513 5514 5514 5514 5515 5516 5518 5519 5519 5519 5519 5519 5519 5519 5519
5603 5596 5588 5580 5573 5567 5562 5557 5553 5548 5543 5537 5532 5528 5524 5522 5521 5520 5518 5517 5516 5514 5513 5513 5514 5515 5515 5516 5517 5518 5518 5518 5519 5520 5522 5523 5523 5523 5524 5523 5523 5523 5525
5597 5590 5582 5574 5569 5564 5560 5556 5551 5546 5541 5537 5532 5529 5526 5524 5521 5520 5519 5518 5517 5515 5515 5516 5517 5519 5520 5520 5521 5522 5522 5522 5522 5523 5525 5526 5528 5529 5528 5528 5528 5529 5532
5591 5584 5577 5572 5567 5563 5559 5554 5549 5544 5540 5536 5533 5530 5527 5525 5522 5520 5519 5519 5519 5518 5518 5520 5522 5523 5524 5525 5525 5526 5526 5527 5527 5528 5529 5530 5532 5533 5533 5533 5534 5536 5539
5588 5581 5575 5571 5567 5562 5557 5552 5548 5543 5539 5536 5534 5531 5528 5526 5524 5522 5521 5521 5521 5521 5522 5524 5526 5528 5529 5530 5530 5531 5532 5532 5532 5533 5534 5536 5538 5539 5539 5539 5540 5543 5547
5585 5580 5575 5571 5566 5561 5556 5552 5547 5543 5539 5536 5534 5532 5530 5527 5525 5524 5523 5523 5524 5525 5526 5529 5531 5532 5534 5534 5535 5536 5537 5537 5536 5537 5539 5541 5543 5544 5545 5547 5549 5551 5555
5586 5580 5576 5571 5567 5562 5557 5552 5548 5544 5540 5537 5535 5533 5531 5529 5527 5526 5526 5527 5528 5529 5530 5532 5534 5536 5537 5538 5539 5540 5541 5541 5541 5541 5543 5546 5548 5550 5551 5554 5557 5560 5562
5587 5583 5578 5573 5568 5563 5559 5554 5550 5546 5543 5540 5537 5536 5534 5532 5530 5530 5530 5531 5532 5533 5534 5536 5537 5539 5540 5541 5542 5543 5544 5545 5545 5546 5548 5550 5552 5554 5556 5560 5563 5565 5567
5589 5585 5580 5576 5571 5566 5561 5557 5553 5549 5546 5543 5541 5540 5537 5535 5535 5535 5535 5536 5537 5538 5539 5540 5541 5542 5542 5543 5545 5546 5547 5548 5549 5551 5552 5555 5556 5558 5561 5563 5567 5569 5572
5593 5589 5584 5580 5575 5570 5565 5560 5556 5553 5550 5547 5546 5544 5542 5541 5540 5540 5540 5541 5542 5544 5544 5544 5545 5545 5546 5547 5548 5549 5551 5552 5554 5555 5557 5559 5561 5563 5565 5567 5569 5572 5575